STARLINK-1061 (44766 NORAD) Tracking and Keplerian Element Data

This shows tracking and keplerian element data for the satellite.

Feedback or suggestion? Click here.




ElementValue
Catalog44766
NameSTARLINK-1061
Epoch Orbit1106
Epoch Day22.58334491
Epoch Year2020
RAAN193.6356
Inclination53.0048
Eccentricity0.0001381
Argument of Perigee101.9312
Mean Anonmoly72.0192
Mean Motion15.05562344
Decay Rate0.00091464
L11 44766U 19074BF 20022.58334491 .00091464 00000-0 62186-2 0 9990
L22 44766 53.0048 193.6356 0001381 101.9312 72.0192 15.05562344 11066

Live tracking and technical data element details for STARLINK-1061 (NORAD 44766). STARLINK-1061 can be tracked NOW for your location showing map with azimuth and elevation plus other details from your city location.

Track the satellite on the map from your city or location and see movement details for azimuth, elevation, latitude, longitude, range, height, and movement on the map or in text.







IsCatalogInMostPopularTable: catalog: 44766, numindb: 18
Update: records affected: 1



GetName: 44766 STARLINK-1061

Hit Count: updated at: Fri, 24 Jan 2020 14:12:15 GMT